Date,TemperatureHighF,TemperatureAvgF,TemperatureLowF,DewpointHighF,DewpointAvgF,DewpointLowF,HumidityHigh,HumidityAvg,HumidityLow,PressureMaxIn,PressureMinIn,WindSpeedMaxMPH,WindSpeedAvgMPH,GustSpeedMaxMPH,PrecipitationSumIn
2014-1-1,62.1,60.1,57.1,60.9,57.2,51.4,97,91,71,30.25,30.04,9,3,14,0.51
2014-1-2,77.0,66.4,59.0,73.2,65.2,54.8,99,96,84,30.04,29.83,15,4,24,0.56
2014-1-3,60.0,48.2,42.3,54.4,34.7,25.2,83,60,46,30.29,30.00,16,6,28,0.03
2014-1-4,67.5,56.5,42.4,58.7,50.6,36.0,88,81,70,30.26,30.06,9,3,14,0.00
2014-1-5,77.3,65.9,57.8,67.8,61.8,56.1,97,87,70,30.08,29.96,8,1,12,0.00
2014-1-6,70.4,58.4,46.2,69.1,52.7,31.5,98,82,53,30.35,29.94,17,6,27,0.00
2014-1-7,46.1,40.2,33.7,32.9,23.3,15.4,60,51,38,30.44,30.30,14,6,21,0.00
2014-1-8,56.9,47.9,35.8,51.2,40.5,23.9,87,75,61,30.42,30.26,9,1,16,0.00
2014-1-9,71.3,62.4,54.5,69.5,60.2,51.0,97,93,86,30.29,30.16,9,3,14,0.17
2014-1-10,80.0,71.8,67.4,71.4,68.4,65.8,98,89,74,30.20,30.04,10,2,15,0.00
2014-1-11,80.1,70.9,62.1,74.2,68.9,60.7,98,94,81,30.06,29.92,9,2,24,0.21
2014-1-12,65.5,59.1,51.7,63.7,51.5,39.6,96,77,43,30.20,30.01,12,3,19,0.21
2014-1-13,76.6,62.3,49.5,69.3,57.7,44.5,94,85,71,30.16,29.95,11,3,18,0.00
2014-1-14,71.6,63.7,51.8,69.7,61.9,50.9,97,94,87,30.04,29.91,6,0,12,0.15
2014-1-15,62.0,56.2,47.4,54.0,50.9,46.3,97,83,63,30.08,29.95,14,2,21,0.06
2014-1-16,55.7,48.6,40.2,49.2,35.8,30.3,86,62,46,30.18,30.00,15,6,26,0.06
2014-1-17,63.1,51.5,39.8,55.5,44.8,36.0,96,79,61,30.23,30.11,8,1,11,0.02
2014-1-18,57.2,49.1,38.4,56.4,37.8,27.7,97,67,42,30.30,30.11,14,1,21,0.02
2014-1-19,66.2,51.6,38.0,56.3,47.3,34.9,97,86,65,30.24,30.13,8,1,15,0.00
2014-1-20,66.7,55.8,44.2,56.0,51.7,43.5,99,87,63,30.17,30.05,7,0,11,0.01
2014-1-21,70.4,60.5,53.9,62.9,56.8,41.6,99,88,59,30.05,29.83,14,3,23,0.03
2014-1-22,55.6,47.6,39.2,41.9,37.8,35.1,90,69,56,30.21,29.95,15,7,21,0.00
2014-1-23,61.8,47.9,38.4,42.4,35.6,24.9,93,66,32,30.37,30.19,11,3,16,0.00
2014-1-24,59.0,48.8,43.0,37.1,28.8,23.2,70,47,32,30.47,30.29,14,4,19,0.00
2014-1-25,63.4,52.8,44.2,56.0,45.5,37.1,94,77,47,30.29,30.04,7,1,10,0.00
2014-1-26,67.9,60.2,55.5,60.9,56.0,51.1,98,86,67,30.08,29.98,7,2,11,0.06
2014-1-27,70.6,64.2,57.8,67.2,62.3,57.0,99,94,76,30.02,29.94,5,1,9,0.15
2014-1-28,76.2,66.4,58.0,66.9,62.7,57.1,99,89,70,30.06,29.96,6,1,11,0.02
2014-1-29,66.7,50.7,44.2,65.2,49.6,43.2,97,96,93,30.22,29.97,11,4,19,0.27
2014-1-30,49.6,45.8,41.7,48.8,45.1,40.9,98,97,97,30.21,30.10,8,3,13,0.48
2014-1-31,59.3,54.2,48.7,59.0,53.6,47.9,99,98,96,30.13,30.04,7,2,13,0.51
2014-2-1,79.7,65.2,59.3,70.9,63.5,59.0,99,95,70,30.13,30.02,10,3,15,0.06
2014-2-2,79.1,68.0,61.7,71.8,65.8,61.4,100,93,76,30.15,30.04,9,1,12,0.01
2014-2-3,79.9,69.5,64.3,72.2,67.5,63.7,99,94,76,30.11,30.02,8,1,14,0.01
2014-2-4,81.2,70.4,62.8,72.0,67.3,62.5,100,91,73,30.12,30.00,8,1,15,0.03
2014-2-5,78.8,71.2,65.2,74.4,69.3,61.6,98,94,84,30.07,29.99,10,2,14,0.00
2014-2-6,68.2,61.1,50.4,62.3,57.5,48.6,94,88,78,30.18,30.02,14,3,23,0.01
2014-2-7,57.0,53.9,50.0,56.2,52.4,47.6,97,95,91,30.19,30.10,11,4,16,0.09
2014-2-8,58.6,56.8,55.1,57.8,55.9,54.3,98,97,95,30.15,30.05,9,3,13,0.02
2014-2-9,65.3,57.5,52.3,56.5,53.7,49.8,98,88,68,30.16,30.05,12,3,17,0.01
2014-2-10,69.6,57.8,47.3,58.3,52.7,46.8,99,84,60,30.13,30.05,10,2,13,0.01
2014-2-11,73.3,60.5,53.5,60.0,54.6,50.7,94,82,60,30.08,30.01,10,2,14,0.00
2014-2-12,74.1,61.7,53.5,67.5,59.7,51.8,99,94,76,30.04,29.71,13,3,23,0.62
2014-2-13,65.0,55.9,50.9,64.1,51.3,44.9,97,85,77,30.00,29.71,14,8,21,0.20
2014-2-14,61.8,52.2,41.2,49.9,45.9,40.1,97,80,60,30.08,29.95,7,1,13,0.00
2014-2-15,62.9,57.6,47.4,60.5,50.2,43.5,96,77,53,30.16,29.92,14,5,22,0.00
2014-2-16,64.1,53.2,42.7,53.1,47.8,41.6,98,84,52,30.22,30.11,11,2,17,0.00
2014-2-17,75.9,57.5,45.5,55.4,48.3,35.9,98,76,26,30.24,30.16,9,2,12,0.01
2014-2-18,77.3,62.4,49.7,61.5,53.1,37.7,96,74,33,30.24,30.15,9,2,14,0.00
2014-2-19,73.6,60.5,56.6,64.4,58.0,55.2,96,92,72,30.18,30.10,5,2,9,0.01
2014-2-24,71.7,67.2,63.9,67.5,65.3,63.1,98,94,86,30.07,29.99,9,2,12,0.00
2014-2-25,72.2,66.1,60.6,67.8,63.9,59.7,99,93,80,30.06,29.96,12,2,18,0.00
2014-2-26,75.9,62.7,58.9,71.3,61.8,58.3,99,97,85,29.96,29.74,11,1,18,0.56
2014-2-27,64.0,56.4,52.5,63.3,51.6,45.1,98,84,70,29.97,29.80,14,1,20,0.06
2014-2-28,62.7,53.7,46.6,48.2,41.4,34.2,92,65,39,30.13,29.94,13,3,20,0.00
2014-3-1,69.5,58.7,46.7,55.7,50.4,45.4,97,76,48,30.24,30.08,14,2,18,0.00
2014-3-2,79.8,64.1,54.6,62.6,57.4,47.2,97,81,33,30.21,30.06,10,2,14,0.00
2014-3-3,78.0,67.5,56.5,67.1,63.0,55.7,98,86,65,30.08,29.99,6,1,12,0.01
2014-3-4,72.1,67.0,63.3,66.9,63.8,61.1,97,90,78,30.04,29.98,11,3,17,0.00
2014-3-5,72.5,65.0,61.2,65.8,62.3,59.5,98,91,79,30.04,29.95,13,3,17,0.02
2014-3-6,69.3,64.2,61.3,66.6,62.8,59.9,98,95,90,30.00,29.74,13,3,21,0.01
2014-3-7,63.8,57.6,47.4,62.9,53.7,43.1,97,87,78,30.08,29.77,15,7,22,0.01
2014-3-8,63.0,53.1,43.1,54.3,48.0,41.0,95,83,63,30.19,30.05,11,3,15,0.06
2014-3-9,75.1,60.9,51.2,61.1,56.4,50.3,98,86,55,30.22,30.09,11,2,15,0.00
2014-3-10,68.8,61.7,54.1,59.8,56.5,53.3,98,84,62,30.15,30.00,10,2,14,0.01
2014-3-11,75.0,64.7,53.7,65.8,59.2,52.3,99,84,52,30.02,29.84,10,2,15,0.00
2014-3-12,74.9,69.7,65.9,68.7,66.7,61.9,96,90,80,29.89,29.74,12,1,25,0.10
2014-3-13,65.9,57.8,51.9,62.7,46.3,37.9,90,66,46,30.21,29.87,0,0,0,0.00
2014-3-14,75.5,59.5,46.1,55.8,47.1,36.9,90,66,40,30.27,30.14,14,3,20,0.00
2014-3-15,78.3,64.8,54.9,60.2,55.6,49.3,96,75,37,30.19,30.02,11,2,15,0.00
2014-3-16,81.6,70.8,60.0,67.7,63.0,55.6,90,77,53,30.03,29.76,18,6,30,0.00
2014-3-17,74.7,70.9,65.3,72.0,68.3,64.7,99,92,78,29.76,29.64,14,1,22,2.00
2014-3-18,70.1,63.3,54.9,69.5,57.4,52.2,98,82,60,30.05,29.64,0,0,2,0.18
2014-3-19,68.9,60.4,52.2,59.2,55.3,51.3,98,84,65,30.12,30.02,14,3,19,0.01
2014-3-20,71.5,63.4,56.5,63.3,58.8,54.8,96,85,72,30.09,29.99,14,4,19,0.00
2014-3-21,81.7,69.0,58.5,67.6,61.9,57.1,96,79,52,30.08,29.98,11,3,16,0.00
2014-3-22,75.1,69.3,65.0,68.3,64.4,62.2,97,85,73,30.07,29.99,10,2,14,0.00
2014-3-23,79.0,70.7,65.3,71.9,67.5,64.0,98,90,68,30.05,29.96,12,3,20,0.04
2014-3-24,71.7,67.4,64.8,67.5,65.4,64.0,98,94,82,30.06,29.90,12,2,16,0.40
2014-3-25,68.4,65.4,62.0,66.4,59.0,39.9,98,81,44,30.06,29.85,17,6,32,0.39
2014-3-26,61.8,54.7,45.1,42.7,34.0,22.5,65,46,28,30.30,30.06,14,6,24,0.00
2014-3-27,68.0,60.1,52.4,58.1,50.6,36.6,82,71,54,30.30,30.19,15,4,24,0.00
2014-3-28,76.4,69.4,61.3,67.9,63.3,57.5,92,81,69,30.18,29.99,15,5,22,0.07
2014-3-29,77.4,70.2,65.5,74.0,68.3,63.7,98,94,84,30.03,29.86,16,4,30,1.75
2014-3-30,65.5,62.2,58.3,63.7,54.5,49.2,94,76,64,30.11,29.94,15,7,26,0.00
2014-3-31,74.3,61.8,51.8,56.5,51.6,42.9,96,72,35,30.17,30.09,9,2,13,0.00
2014-4-1,77.0,63.7,52.3,61.8,56.8,50.6,97,80,47,30.19,30.10,10,2,13,0.01
2014-4-2,81.1,67.0,58.1,65.2,60.6,56.1,96,82,46,30.18,30.10,10,3,16,0.00
2014-4-3,81.6,69.8,59.8,66.4,63.0,58.7,97,80,58,30.14,30.03,11,3,21,0.00
2014-4-4,82.3,70.7,61.9,68.6,65.1,61.0,97,84,59,30.06,29.99,12,3,20,0.00
2014-4-5,81.7,70.8,61.8,70.5,65.0,58.1,99,84,48,30.05,29.95,10,2,16,0.01
2014-4-6,84.9,73.8,66.4,69.3,66.3,63.8,97,79,54,30.03,29.92,11,3,18,0.00
2014-4-7,86.6,76.5,68.5,73.6,69.8,66.2,95,81,57,29.93,29.80,16,4,26,0.00
2014-4-8,77.4,71.1,65.9,73.5,66.7,56.3,97,86,72,29.89,29.71,15,1,31,0.48
2014-4-9,68.6,65.1,60.6,57.6,55.3,53.0,87,71,62,30.13,29.88,15,8,25,0.02
2014-4-10,79.6,66.2,55.4,58.7,54.6,47.7,97,70,36,30.28,30.10,12,3,17,0.00
2014-4-11,81.7,69.5,58.7,65.1,59.2,53.8,88,71,43,30.25,30.11,11,2,15,0.00
2014-4-12,83.5,72.7,63.8,70.9,65.3,60.1,95,79,52,30.17,30.07,13,3,18,0.00
2014-4-13,85.6,73.0,62.2,69.6,64.4,59.5,94,76,51,30.12,29.97,11,3,17,0.00
2014-4-14,85.4,76.0,68.7,71.1,68.2,65.2,93,78,55,30.01,29.86,12,4,19,0.00
2014-4-15,81.5,72.7,63.5,76.2,69.7,57.1,97,91,79,29.97,29.79,17,5,26,0.45
2014-4-16,77.8,63.0,48.5,60.6,52.4,44.1,85,70,43,30.13,29.97,12,5,20,0.00
2014-4-17,82.1,69.4,59.9,70.8,63.4,56.9,93,82,68,30.17,30.07,11,4,21,0.04
2014-4-18,75.0,70.1,67.8,73.0,68.2,65.6,97,94,89,30.10,29.89,13,3,29,0.54
2014-4-19,70.5,66.5,62.8,69.9,62.9,58.4,98,88,78,30.00,29.86,0,0,0,0.01
2014-4-20,68.9,64.1,60.7,61.5,60.3,58.4,97,88,76,30.08,29.96,0,0,0,0.03
2014-4-21,71.4,65.3,61.6,62.4,59.4,56.7,91,81,71,30.10,29.97,0,0,0,0.00
2014-4-22,74.4,66.3,59.0,65.8,61.9,57.8,98,86,70,30.00,29.86,11,2,16,0.00
2014-4-23,74.9,69.8,66.1,66.9,64.8,62.7,94,84,74,29.97,29.88,10,2,14,0.00
2014-4-24,78.2,70.9,63.2,69.3,66.7,62.3,98,87,72,30.02,29.92,11,2,15,0.00
2014-4-25,79.9,72.2,63.8,71.2,67.7,63.1,98,86,68,30.02,29.93,11,2,16,0.00
2014-4-26,80.5,72.8,64.8,71.4,68.5,64.0,98,87,70,30.03,29.93,10,3,14,0.01
2014-4-27,89.2,75.9,67.7,73.9,69.5,63.9,97,83,45,29.99,29.91,12,2,17,0.01
2014-4-28,91.0,79.3,72.1,72.9,70.1,59.4,96,76,39,29.95,29.85,12,3,19,0.00
2014-4-29,91.2,79.6,73.8,75.8,73.0,70.3,94,81,54,29.98,29.84,14,4,21,0.00
2014-4-30,87.9,78.2,74.0,76.8,72.1,68.5,94,82,62,30.03,29.91,12,5,20,0.00
2014-5-1,88.1,77.5,73.6,76.6,71.8,69.2,91,83,64,30.01,29.92,12,4,22,0.06
2014-5-2,75.7,72.9,71.0,74.5,71.3,69.2,97,95,86,29.94,29.87,14,2,21,1.97
2014-5-3,71.9,67.6,62.3,71.3,66.1,59.5,98,95,87,30.05,29.86,12,3,18,0.49
2014-5-4,79.5,69.1,57.6,66.0,61.2,55.0,98,78,43,30.11,30.01,14,3,19,0.01
2014-5-5,82.7,72.8,61.1,67.7,62.7,56.9,98,73,43,30.08,29.98,11,3,14,0.00
2014-5-6,85.9,74.5,64.0,70.3,64.7,61.1,93,73,47,30.04,29.95,12,2,14,0.00
2014-5-7,87.2,77.3,70.8,72.1,68.9,64.5,91,76,52,30.12,29.99,11,4,18,0.00
2014-5-8,90.3,78.9,70.2,72.9,69.2,66.1,94,74,46,30.17,30.08,14,4,23,0.00
2014-5-9,89.2,78.7,73.0,73.3,70.6,67.0,94,77,50,30.16,30.05,15,5,22,0.00
2014-5-10,89.4,79.2,71.5,73.8,70.1,63.4,92,75,44,30.13,30.03,16,4,23,0.00
2014-5-11,88.1,79.8,75.6,75.9,72.4,70.0,87,79,59,30.13,30.02,12,0,18,0.00
2014-5-12,90.0,80.2,71.3,71.4,68.5,65.3,89,69,46,30.13,30.02,8,1,15,0.00
2014-5-13,91.8,79.7,71.1,77.6,70.8,67.6,94,76,50,30.06,29.95,14,3,20,0.07
2014-5-14,91.7,78.7,72.0,75.5,72.5,69.4,96,82,52,30.03,29.90,14,4,25,0.36
2014-5-15,83.3,77.8,73.1,77.0,72.5,68.0,95,84,78,30.00,29.89,15,6,24,0.00
2014-5-16,76.0,70.0,64.2,69.0,60.5,50.3,85,73,44,30.12,29.98,16,7,26,0.00
2014-5-17,84.1,72.3,60.7,60.1,54.3,46.6,91,57,28,30.16,30.06,13,3,18,0.00
2014-5-18,87.1,74.3,62.8,62.7,58.5,54.2,77,59,42,30.16,30.06,10,3,19,0.00
2014-5-19,87.9,75.6,64.0,69.1,63.2,58.7,89,67,39,30.16,30.08,11,3,18,0.00
2014-5-20,86.4,76.5,66.8,70.8,65.9,60.9,94,71,47,30.20,30.10,14,4,19,0.00
2014-5-21,83.4,74.0,63.9,67.4,64.1,60.6,90,72,51,30.18,30.10,12,3,16,0.00
2014-5-22,82.7,75.7,66.8,72.4,68.7,64.6,93,80,60,30.15,30.06,12,3,16,0.00
2014-5-23,84.0,78.3,73.7,76.0,72.6,68.7,93,83,74,30.10,30.02,12,4,19,0.00
2014-5-24,84.5,78.7,73.1,77.5,74.6,71.9,97,88,76,30.09,30.01,9,2,14,0.00
2014-5-25,88.1,80.4,75.3,78.9,74.5,66.9,97,83,60,30.11,29.99,13,2,24,0.00
2014-5-26,91.4,78.3,70.7,75.5,71.7,63.8,95,82,53,30.16,30.05,12,3,19,0.05
2014-5-27,88.2,76.9,71.6,74.9,70.9,67.2,96,83,52,30.14,30.02,12,3,20,0.03
2014-5-28,88.1,78.7,71.9,74.9,70.8,64.4,96,78,48,30.06,29.96,12,3,17,0.01
2014-5-29,89.6,77.6,70.6,75.7,71.2,66.2,97,82,48,30.02,29.92,15,4,27,1.76
2014-5-30,90.8,77.0,69.6,76.2,71.4,67.9,98,84,53,30.01,29.93,11,3,16,0.01
2014-5-31,88.6,77.1,71.0,76.9,71.9,69.2,95,85,60,30.02,29.94,10,-1,16,0.03
2014-6-1,89.7,78.3,72.7,75.5,72.7,70.1,97,84,59,30.05,29.98,9,3,21,0.01
2014-6-2,87.0,78.8,73.2,73.2,71.1,67.5,94,78,58,30.08,30.01,13,3,20,0.01
2014-6-3,86.5,78.4,71.7,69.3,67.5,64.0,85,71,49,30.07,29.96,0,0,0,0.00
2014-6-4,86.0,79.1,73.2,69.7,67.1,64.1,81,67,53,29.99,29.90,0,0,0,0.00
2014-6-5,87.3,79.1,70.4,74.8,70.7,66.4,90,76,57,29.97,29.87,0,0,0,0.00
2014-6-6,85.9,79.9,72.2,74.3,72.2,69.7,95,78,65,30.00,29.89,0,0,0,0.00
2014-6-7,86.3,80.5,73.9,75.7,73.4,72.0,95,80,67,30.02,29.87,0,0,0,0.00
2014-6-8,87.1,80.6,73.5,76.0,73.4,68.6,96,80,66,30.00,29.89,0,0,0,0.00
2014-6-9,87.7,81.1,73.7,76.8,73.8,68.7,94,79,67,30.00,29.88,0,0,0,0.00
2014-6-10,89.5,81.3,73.9,78.6,74.6,70.3,95,81,62,30.01,29.94,0,0,0,0.04
2014-6-11,88.1,78.6,73.5,77.9,74.1,71.4,97,87,69,29.98,29.90,0,0,0,0.23
2014-6-12,88.1,79.6,72.4,77.0,74.2,71.0,97,85,66,29.99,29.91,0,0,0,0.13
2014-6-13,85.5,79.1,70.7,78.3,74.8,68.8,97,87,69,30.02,29.93,0,0,0,1.00
2014-6-14,87.8,79.6,73.0,76.7,73.3,68.8,95,82,63,30.07,29.95,0,0,0,0.06
2014-6-15,89.0,79.8,72.4,78.0,73.9,70.0,96,83,67,30.12,30.01,0,0,0,0.00
2014-6-16,89.8,79.2,72.2,76.7,72.3,69.7,96,81,58,30.16,30.04,0,0,0,0.41
2014-6-17,89.4,79.7,70.8,77.1,73.0,69.5,97,81,58,30.14,30.03,0,-4,0,0.01
2014-6-18,90.0,78.9,72.1,74.7,71.6,69.1,97,80,53,30.11,30.02,0,0,0,1.23
2014-6-19,88.7,81.3,71.0,76.4,73.1,70.1,98,78,58,30.12,30.02,0,0,0,0.02
2014-6-20,88.3,81.8,74.2,76.9,74.6,72.6,96,80,65,30.07,29.96,0,0,0,0.00
2014-6-21,88.8,83.3,78.9,77.1,75.2,73.6,85,77,65,30.01,29.90,0,0,0,0.00
2014-6-22,89.3,83.5,80.0,77.6,75.1,73.3,83,76,65,29.99,29.89,0,0,0,0.00
2014-6-23,89.3,82.8,78.6,78.1,75.3,72.8,89,79,64,30.07,29.92,0,0,0,0.16
2014-6-24,89.0,83.6,78.9,77.9,75.7,73.0,89,77,68,30.13,30.04,0,0,0,0.00
2014-6-25,90.5,83.8,77.3,77.8,74.8,72.6,91,75,59,30.13,30.01,0,0,0,0.00
2014-6-26,92.5,84.6,77.1,77.9,75.7,68.8,93,76,48,30.10,29.96,0,0,0,0.00
2014-6-27,91.8,83.7,76.0,78.8,74.9,71.4,93,76,57,30.09,30.00,0,0,0,0.00
2014-6-28,92.1,84.4,76.5,78.1,75.5,69.7,92,76,50,30.14,30.05,0,0,0,0.00
2014-6-29,91.7,84.9,75.2,80.1,77.1,72.0,96,79,63,30.13,30.01,0,0,0,0.07
2014-6-30,91.0,82.4,74.9,78.9,75.0,70.1,97,80,55,30.06,29.90,0,0,0,0.35
2014-7-1,90.0,82.3,75.6,79.0,75.9,71.5,97,82,64,29.95,29.84,0,0,0,0.03
2014-7-2,89.8,82.0,74.9,80.5,76.0,72.0,97,83,67,29.95,29.87,0,-3,0,0.00
2014-7-3,91.6,84.7,80.2,79.0,76.6,73.3,86,77,64,30.07,29.92,0,0,0,0.00
2014-7-4,90.1,82.0,74.6,78.1,75.0,71.1,96,80,63,30.10,30.00,0,0,0,0.33
2014-7-5,89.6,81.6,75.6,78.5,75.5,71.7,97,83,66,30.10,30.04,0,0,0,0.01
2014-7-6,88.7,80.0,74.5,77.9,74.5,69.1,96,84,65,30.09,30.01,0,0,0,0.00
2014-7-7,87.9,79.4,74.2,78.4,74.3,72.0,97,85,63,30.11,30.01,0,0,0,0.04
2014-7-8,90.5,82.6,75.8,78.7,75.2,71.2,95,80,61,30.14,30.04,0,-3,0,0.00
2014-7-9,89.2,79.6,76.1,79.3,75.2,71.8,96,87,65,30.12,30.03,0,0,0,0.13
2014-7-10,90.2,80.0,75.5,78.8,74.8,69.6,96,85,63,30.11,30.04,0,0,0,0.04
2014-7-11,90.5,80.7,73.6,78.7,74.9,72.1,97,83,60,30.14,30.05,0,0,0,0.06
2014-7-12,93.5,81.5,75.5,78.2,73.9,67.9,95,79,49,30.13,30.06,0,0,0,0.00
2014-7-13,90.8,81.7,74.4,78.5,74.9,72.0,95,81,63,30.11,30.02,0,0,0,0.00
2014-7-14,91.1,83.1,76.3,79.2,76.1,73.3,94,80,64,30.07,30.00,0,0,0,0.00
2014-7-15,90.8,83.3,76.2,79.2,76.4,73.7,93,80,64,30.01,29.92,0,0,0,0.45
2014-7-16,83.8,78.6,74.5,78.8,75.5,72.1,97,91,79,29.99,29.89,0,0,0,1.16
2014-7-17,89.6,82.1,74.6,78.1,74.8,71.7,97,80,62,30.01,29.90,0,0,0,0.87
2014-7-18,90.5,81.6,73.0,75.5,73.0,70.4,93,76,58,30.07,29.99,0,0,0,0.00
2014-7-19,91.3,83.0,76.1,79.4,75.1,72.1,95,78,61,30.07,29.98,10,2,15,0.08
2014-7-20,90.4,83.3,76.6,79.4,76.4,74.4,95,81,63,30.07,29.99,12,2,17,0.00
2014-7-21,91.8,82.6,76.0,79.2,75.3,72.1,95,80,61,30.06,29.98,11,2,17,0.00
2014-7-22,89.8,81.7,73.8,77.4,74.8,71.8,95,81,63,30.06,29.98,12,2,16,0.00
2014-7-23,91.3,84.4,77.5,78.9,76.7,74.9,96,79,62,30.07,29.98,10,2,14,0.00
2014-7-24,91.7,83.7,77.9,78.3,76.2,74.7,95,79,61,30.05,29.96,8,1,12,0.00
2014-7-25,91.8,84.2,78.4,79.6,77.0,74.9,91,80,64,30.08,29.99,10,2,15,0.00
2014-7-26,92.1,84.9,78.2,80.0,77.0,75.3,94,78,60,30.09,30.01,10,2,13,0.00
2014-7-27,92.1,86.2,81.7,79.1,77.0,75.4,83,74,63,30.09,30.02,10,3,15,0.00
2014-7-28,90.6,85.1,83.1,79.5,76.7,74.8,81,76,68,30.05,30.00,10,4,17,0.00
2014-8-4,88.0,82.8,77.3,78.9,76.4,73.8,94,81,71,29.96,29.85,12,2,19,0.00
2014-8-5,90.5,83.4,77.3,80.7,76.9,74.1,97,81,66,30.05,29.93,9,2,12,0.17
2014-8-6,91.5,84.4,77.7,79.6,76.8,75.5,95,79,63,30.06,29.97,11,2,15,0.00
2014-8-7,91.8,84.9,78.5,79.3,76.7,73.0,93,77,63,30.01,29.93,11,2,16,0.00
2014-8-8,90.8,83.6,77.1,79.7,76.2,70.5,93,79,64,30.07,29.94,21,2,31,0.52
2014-8-9,91.8,84.2,78.0,79.5,76.7,73.0,94,79,64,30.06,29.97,10,2,15,0.00
2014-8-10,92.3,80.3,74.8,79.9,75.8,70.8,96,87,63,30.07,29.98,13,2,20,0.75
2014-8-11,87.6,79.1,74.1,78.8,75.6,70.9,97,90,62,30.04,29.97,17,2,32,0.81
2014-8-12,91.7,81.7,75.5,80.1,76.3,70.2,98,85,65,30.01,29.92,12,3,22,0.04
2014-8-13,91.8,83.5,76.4,79.7,76.8,74.5,95,81,64,30.01,29.94,10,2,16,0.00
2014-8-14,91.3,82.6,76.0,80.8,77.7,72.7,97,86,68,30.03,29.94,14,2,21,0.73
2014-8-15,82.7,77.3,72.4,79.0,75.4,70.4,97,94,87,30.09,29.94,13,2,22,2.63
2014-8-16,90.1,81.4,73.8,80.5,76.7,72.8,98,87,71,30.08,29.97,11,2,17,0.01
2014-8-17,91.5,83.7,76.7,80.5,77.4,75.2,97,82,65,30.10,30.02,8,2,13,0.00
2014-8-18,92.5,84.0,77.0,80.1,77.1,75.1,96,81,63,30.06,29.97,10,2,14,0.00
2014-8-19,91.7,84.5,76.6,79.1,76.7,74.5,95,78,65,30.04,29.96,9,2,15,0.00
2014-8-20,91.9,84.8,77.6,79.4,77.1,74.8,94,79,65,30.09,29.97,11,2,15,0.00
2014-8-21,93.1,84.8,77.6,80.4,77.0,73.8,95,78,61,30.12,30.02,12,2,16,0.00
2014-8-22,92.3,84.9,77.9,79.2,76.4,73.5,94,77,57,30.09,29.97,12,2,16,0.00
2014-8-23,92.5,84.0,77.4,81.6,77.5,75.2,94,81,66,29.99,29.85,11,2,16,0.00
2014-8-24,92.6,83.1,74.9,81.4,77.3,71.8,95,84,58,29.88,29.73,19,2,27,0.72
2014-8-25,93.6,82.8,76.6,78.0,75.4,72.2,96,80,51,29.86,29.78,15,6,21,0.00
2014-8-26,94.9,83.1,74.0,76.3,72.2,68.3,96,73,43,29.94,29.85,12,4,19,0.00
2014-8-27,94.5,82.9,75.6,75.9,73.2,68.4,92,74,45,29.98,29.90,11,3,16,0.00
2014-8-28,93.6,84.2,75.8,77.1,74.5,71.1,93,74,50,29.99,29.90,12,2,16,0.00
2014-8-29,94.2,84.6,78.7,79.6,77.4,75.1,93,80,60,30.07,29.95,11,2,20,0.00
2014-8-30,96.0,82.0,75.3,81.0,75.0,71.5,96,81,52,30.12,30.00,14,3,23,0.45
2014-8-31,94.3,82.2,74.1,79.6,75.7,73.2,98,82,57,30.11,30.02,9,1,14,0.01
2014-9-1,94.0,82.9,76.2,79.0,75.7,71.2,94,80,55,30.10,30.00,9,2,16,0.00
2014-9-2,92.0,81.3,74.0,78.5,75.7,70.6,96,84,61,30.08,29.94,22,2,30,1.08
2014-9-3,94.1,81.3,74.4,77.1,74.7,72.2,97,82,51,30.03,29.93,13,3,20,0.63
2014-9-4,91.8,80.0,74.1,79.1,74.8,71.1,98,86,52,30.09,30.00,9,2,17,0.04
2014-9-5,86.7,78.5,73.2,78.9,75.5,70.9,96,91,73,30.13,30.01,10,1,15,1.71
2014-9-6,88.5,80.5,75.2,78.2,74.9,72.6,96,84,64,30.05,29.93,7,2,11,0.00
2014-9-7,89.0,80.9,75.6,77.6,74.8,72.8,96,82,63,30.00,29.92,10,2,17,0.00
2014-9-8,85.3,80.3,77.0,77.9,75.0,72.5,91,84,76,30.06,29.96,0,0,0,0.00
2014-9-9,85.0,77.2,73.7,77.7,74.1,71.3,96,90,77,30.06,29.95,0,0,0,0.87
2014-9-10,91.5,80.8,73.4,77.4,74.3,72.2,97,82,55,30.02,29.92,12,1,16,0.01
2014-9-11,92.8,82.1,75.0,77.2,74.6,71.9,96,80,52,30.02,29.93,9,2,13,0.00
2014-9-12,92.8,81.3,73.6,77.9,74.8,71.3,96,82,56,30.00,29.89,12,3,19,0.01
2014-9-13,92.8,81.5,74.1,76.2,73.7,71.2,95,79,51,30.06,29.94,10,3,15,0.61
2014-9-14,91.5,79.5,74.0,77.0,74.4,72.0,97,86,55,30.12,30.02,14,2,23,0.01
2014-9-15,91.0,81.1,74.2,77.9,75.0,71.5,98,83,56,30.15,30.06,12,2,20,0.37
2014-9-16,89.0,79.3,75.1,78.0,74.9,70.1,95,87,64,30.12,29.96,13,1,25,0.08
2014-9-17,81.6,76.5,73.0,76.6,73.7,71.7,98,91,81,29.98,29.85,10,2,23,1.79
2014-9-18,88.7,79.7,72.1,77.8,74.1,71.2,98,84,65,29.93,29.85,9,2,14,0.01
2014-9-19,79.4,75.4,69.0,77.4,73.1,67.5,97,93,84,29.97,29.87,9,2,16,0.76
2014-9-20,84.8,75.1,70.1,74.4,71.6,69.2,98,89,70,29.95,29.87,9,2,12,0.05
2014-9-21,87.0,78.2,70.8,76.4,73.0,69.6,97,85,64,30.01,29.91,10,2,12,0.00
2014-9-22,80.2,76.4,74.5,77.4,74.5,72.4,97,94,86,30.03,29.93,10,2,18,0.77
2014-9-23,84.6,77.4,73.3,77.2,73.6,71.3,96,88,73,30.02,29.92,9,2,14,0.03
2014-9-24,85.9,76.9,70.8,76.4,72.1,69.3,95,86,70,30.08,29.98,9,3,14,0.00
2014-9-25,87.5,76.9,70.5,76.9,72.4,68.2,94,86,70,30.09,29.97,8,3,14,0.10
2014-9-26,88.0,77.2,71.2,77.7,73.5,70.0,97,89,69,30.01,29.91,10,3,20,0.22
2014-9-27,89.4,77.5,72.8,78.8,74.6,71.6,98,91,69,30.01,29.91,11,2,15,1.98
2014-9-28,91.3,79.0,73.5,79.8,75.2,72.5,99,89,60,30.01,29.89,11,3,17,0.64
2014-9-29,90.6,77.4,74.0,78.6,74.9,73.1,98,93,63,29.96,29.82,10,2,15,0.89
2014-9-30,85.8,78.5,74.3,79.0,76.0,73.7,99,92,76,29.85,29.78,11,1,18,0.97
2014-10-1,87.4,79.9,75.5,77.5,75.8,74.3,96,88,71,29.96,29.80,9,2,12,0.00
2014-10-2,87.4,79.7,74.1,78.0,75.2,72.8,97,87,71,30.03,29.93,8,2,12,0.00
2014-10-3,88.8,80.6,75.3,78.9,75.9,74.0,97,86,67,30.02,29.92,12,2,21,0.03
2014-10-4,82.3,76.5,73.4,77.0,69.9,58.6,98,82,56,29.95,29.86,15,2,19,0.37
2014-10-5,75.1,67.4,58.3,61.7,50.3,42.2,71,55,35,30.04,29.92,11,4,17,0.00
2014-10-6,81.4,70.9,60.2,68.5,61.5,51.3,87,73,55,30.08,29.98,8,2,12,0.00
2014-10-7,87.0,76.0,69.0,74.5,69.6,64.3,95,81,63,30.07,29.99,12,2,20,0.34
2014-10-8,89.0,77.2,69.7,74.8,71.6,68.7,97,84,53,30.13,30.02,10,2,13,0.01
2014-10-9,90.0,79.1,71.4,74.2,71.4,68.5,96,79,50,30.09,29.99,9,2,14,0.00
2014-10-10,90.8,78.6,71.0,76.8,72.4,69.1,97,82,52,30.07,29.96,11,2,15,0.01
2014-10-11,88.8,77.9,70.2,74.9,71.1,68.7,96,81,58,30.04,29.95,11,2,15,0.00
2014-10-12,90.3,79.4,71.5,74.1,71.6,69.7,95,78,52,30.05,29.97,10,3,16,0.00
2014-10-13,89.8,80.3,71.8,76.8,72.4,68.9,93,78,57,30.06,29.95,15,4,22,0.00
2014-10-14,85.8,77.7,72.8,77.4,74.0,70.2,97,89,72,29.99,29.90,12,2,20,0.96
2014-10-15,79.3,74.8,69.2,74.7,69.0,61.7,98,83,65,29.98,29.90,0,0,0,0.18
2014-10-16,80.8,74.5,66.4,65.1,62.3,60.0,87,66,54,29.96,29.89,0,0,0,0.00
2014-10-17,79.4,70.7,59.1,61.8,58.2,53.3,90,67,44,30.01,29.93,0,0,0,0.00
2014-10-18,81.3,70.0,59.8,67.5,63.5,58.5,97,81,60,30.00,29.91,0,0,0,0.00
2014-10-19,85.0,71.1,63.5,71.3,66.0,62.1,98,85,52,30.02,29.95,0,0,0,0.01
2014-10-20,85.6,73.8,64.8,69.5,65.2,58.1,95,77,41,30.04,29.92,0,0,0,0.00
2014-10-21,81.7,73.6,67.6,70.4,66.4,62.5,92,79,60,29.96,29.89,0,0,0,0.00
2014-10-22,84.0,73.5,67.3,68.5,64.5,59.6,95,75,46,29.99,29.90,11,2,16,0.00
2014-10-23,82.1,71.0,62.0,63.2,58.8,55.6,83,67,44,29.99,29.88,9,4,16,0.00
2014-10-24,76.0,68.0,60.3,63.4,59.4,55.2,88,75,57,30.00,29.89,12,4,18,0.00
2014-10-25,75.1,67.1,57.4,60.4,56.5,51.8,91,71,47,30.01,29.93,12,3,18,0.00
2014-10-26,77.3,66.5,55.7,60.6,57.6,51.1,97,76,43,30.03,29.95,11,2,14,0.00
2014-10-27,83.9,69.2,58.9,64.3,60.7,56.0,97,77,41,30.09,29.99,9,1,14,0.01
2014-10-28,84.3,72.2,63.8,67.4,63.5,51.8,95,77,35,30.16,30.06,10,2,16,0.00
2014-10-29,84.5,73.2,63.3,71.2,67.3,62.4,98,83,57,30.09,29.98,8,2,11,0.00
2014-10-30,80.9,73.3,67.5,69.5,67.9,65.7,98,84,65,29.99,29.86,9,1,10,0.01
2014-10-31,72.3,69.4,62.9,69.3,58.8,52.3,94,70,52,29.91,29.83,13,1,19,0.00
2014-11-1,70.6,59.9,50.9,59.6,46.2,40.6,88,61,48,30.19,29.87,19,5,31,0.05
2014-11-2,61.1,56.4,45.7,47.5,43.2,36.5,84,62,41,30.31,30.19,11,5,16,0.00
2014-11-3,73.5,60.2,47.2,54.9,47.9,38.3,82,65,45,30.36,30.27,9,2,13,0.00
2014-11-4,80.0,67.0,55.6,60.5,56.9,52.4,89,72,48,30.31,30.15,11,2,17,0.00
2014-11-5,82.5,70.6,62.7,66.5,62.3,58.7,93,76,52,30.23,30.09,8,2,13,0.00
2014-11-6,81.6,70.2,62.2,69.1,65.4,60.1,96,85,58,30.14,29.98,10,2,14,0.00
2014-11-7,72.7,65.8,56.4,66.3,58.6,50.0,97,78,61,30.00,29.92,11,4,19,0.00
2014-11-8,71.8,60.9,53.9,60.5,55.3,50.3,94,82,65,29.98,29.86,9,3,15,0.22
2014-11-9,67.2,60.8,57.0,60.5,57.8,55.3,97,90,75,29.95,29.85,10,2,14,0.30
2014-11-10,71.4,63.1,56.3,61.9,59.1,55.3,97,87,66,29.99,29.92,13,3,19,0.02
2014-11-11,71.7,64.7,58.4,60.4,58.2,54.4,97,81,58,29.99,29.91,13,2,19,0.01
2014-11-12,72.1,63.2,53.0,60.4,56.6,50.3,97,81,47,30.07,29.97,9,1,13,0.01
2014-11-13,73.8,66.4,55.1,65.7,59.7,54.0,97,81,54,30.06,29.98,8,1,13,0.00
2014-11-14,67.1,60.6,54.6,65.6,54.9,45.1,95,82,62,30.15,30.00,13,4,19,0.00
2014-11-15,70.6,59.0,48.9,58.6,52.1,43.1,93,78,61,30.24,30.13,10,3,13,0.00
2014-11-16,80.8,66.8,56.8,69.3,62.7,55.4,98,88,67,30.20,30.01,10,2,16,0.00
2014-11-17,79.0,69.9,61.2,74.5,68.3,60.3,98,95,85,30.03,29.86,12,4,24,0.99
2014-11-18,61.1,50.8,44.9,59.9,42.1,29.3,97,72,52,30.32,30.00,14,6,22,0.03
2014-11-19,58.3,47.0,39.6,45.6,35.4,24.9,83,64,53,30.39,30.24,13,5,21,0.00
2014-11-20,64.4,52.3,42.3,42.9,36.1,24.9,82,57,23,30.29,30.16,10,4,14,0.00
2014-11-21,74.8,62.4,52.2,57.3,46.9,32.7,78,58,42,30.27,30.18,10,4,20,0.00
2014-11-22,75.7,68.1,60.2,69.2,64.6,55.6,96,89,78,30.22,30.02,12,3,24,0.33
2014-11-23,83.5,75.5,69.9,74.5,71.5,67.8,96,88,74,30.03,29.84,15,4,29,0.01
2014-11-24,83.3,76.8,72.9,76.2,73.6,71.7,97,90,75,30.00,29.90,11,3,20,0.00
2014-11-25,76.6,72.3,70.1,76.0,71.7,69.5,99,98,97,29.98,29.81,11,2,23,2.17
2014-11-26,71.0,57.3,46.9,70.7,52.1,43.2,99,84,59,30.22,29.82,19,6,29,0.91
2014-11-27,67.2,54.1,45.7,58.1,48.9,44.4,97,84,55,30.28,30.21,13,3,22,0.09
2014-11-28,59.6,48.4,42.0,41.0,36.4,34.0,75,63,44,30.35,30.24,13,6,22,0.01
2014-11-29,72.6,54.8,45.9,56.6,48.0,42.4,91,79,48,30.30,30.22,9,2,12,0.00
2014-11-30,76.2,62.6,53.2,61.4,56.6,51.2,94,82,58,30.32,30.23,9,2,14,0.00
2014-12-1,78.6,67.8,58.2,66.1,62.0,56.5,95,83,62,30.32,30.19,9,2,16,0.01
2014-12-2,78.3,69.1,61.8,68.5,64.9,60.9,98,87,70,30.22,30.11,12,2,18,0.01
2014-12-3,80.3,69.8,63.1,68.6,64.6,61.3,97,85,65,30.19,30.09,7,2,12,0.01
2014-12-4,80.8,69.6,60.8,67.3,63.3,59.7,97,82,60,30.21,30.11,9,2,13,0.01
2014-12-5,80.3,71.0,64.4,69.7,65.9,62.8,98,85,67,30.23,30.15,12,2,17,0.00
2014-12-6,78.7,69.5,64.2,70.8,66.7,63.3,98,91,74,30.21,30.11,11,2,13,0.00
2014-12-7,64.8,62.8,58.7,64.5,61.4,55.2,99,95,85,30.13,30.05,11,2,15,0.01
2014-12-8,63.4,59.5,55.8,61.9,57.8,54.8,97,94,90,30.12,30.03,0,0,0,0.01
2014-12-9,58.9,55.6,52.4,54.9,50.8,41.6,97,85,59,30.12,30.04,14,6,25,0.00
2014-12-10,62.5,54.9,45.6,49.9,46.1,41.4,87,73,48,30.15,30.08,10,3,15,0.00
2014-12-11,61.2,53.8,44.8,52.1,48.1,42.1,94,82,68,30.22,30.10,9,2,15,0.00
2014-12-12,57.7,51.8,45.4,49.5,42.3,36.1,91,71,47,30.30,30.17,7,2,10,0.00
2014-12-13,63.4,51.1,40.0,49.9,43.5,38.7,97,78,44,30.21,30.11,10,2,13,0.00
2014-12-14,64.9,52.6,44.0,52.8,45.9,39.3,98,80,41,30.13,30.05,8,1,12,0.00
2014-12-15,67.3,53.6,42.9,57.7,50.1,41.8,98,89,55,30.15,30.05,6,1,10,0.00
2014-12-16,71.9,58.1,46.1,62.9,54.9,45.3,99,90,65,30.20,30.12,10,2,15,0.00
2014-12-17,69.1,61.1,52.1,62.6,55.8,49.8,97,83,59,30.21,30.11,8,1,10,0.00
2014-12-18,65.4,54.9,47.4,56.7,51.5,46.3,98,89,73,30.19,30.09,10,1,12,0.00
2014-12-19,71.1,58.8,48.6,58.4,51.4,46.9,97,78,51,30.14,30.03,6,1,9,0.00
2014-12-20,76.0,63.9,54.1,62.7,57.0,47.1,92,79,58,30.10,30.01,8,2,12,0.00
2014-12-21,75.3,66.9,62.3,67.7,63.6,59.3,97,89,76,30.07,29.96,8,1,12,0.00
2014-12-22,78.8,70.0,64.8,72.7,68.1,64.2,99,94,81,30.01,29.88,9,2,23,0.00
2014-12-23,80.6,72.9,66.8,72.1,69.2,65.9,98,89,65,29.93,29.83,13,3,24,0.01
2014-12-24,80.2,73.1,64.5,74.3,70.0,62.6,97,90,82,29.98,29.79,9,0,13,0.66
2014-12-25,65.9,60.0,53.0,63.1,54.0,50.4,93,81,71,30.23,29.97,10,2,16,0.01
2014-12-26,73.8,62.1,51.3,60.2,55.7,49.3,94,81,59,30.24,30.16,6,2,10,0.00
2014-12-27,79.0,68.6,61.8,70.2,64.7,59.1,95,88,72,30.25,30.13,9,2,13,0.00
2014-12-28,77.3,69.6,62.3,70.4,66.5,61.4,98,90,76,30.17,30.07,9,1,12,0.00
2014-12-29,79.4,70.1,63.0,71.5,67.4,62.4,99,92,72,30.14,30.03,10,2,15,0.01
2014-12-30,70.0,67.7,62.9,69.6,67.0,61.7,99,98,96,30.22,30.06,6,2,12,0.42
2014-12-31,63.6,61.4,58.4,61.1,59.2,56.6,96,92,88,30.28,30.17,8,1,13,0.00
2015-1-1,72.6,63.7,57.6,66.8,60.6,55.6,95,90,80,30.27,30.13,8,2,11,0.00
2015-1-2,78.3,68.7,61.8,70.4,65.6,61.2,98,91,75,30.25,30.14,9,2,15,0.00